Tracking 35275 objects as of 9-Sep-2026
HD Live streaming from Space Station
objects crossing your sky now

SL-12 PLAT


SL-12 PLAT is no longer on orbit


NORAD ID: 14106
Int'l Code: 1983-053C
Launch date: June 2, 1983
Source: Commonwealth of Independent States (former USSR) (CIS)
Launch site: TYURATAM MISSILE AND SPACE COMPLEX (TTMTR)
Decay date: 1983-06-03
Your satellite tracking list
Your tracking list is empty




NASA's NSSDC Master Catalog

Two Line Element Set (TLE):
1 14106U 83053  C 83153.77494740  .07703336 +55891-4 +53054-3 0  9994
2 14106 051.5173 295.2600 0023467 050.9133 309.3411 16.38679671000121
Source of the keplerian elements: AFSPC